Sauk Centre, MN

10:47 AM CDT on October 19, 2019 (GMT -0500)
Sauk Centre

Weather History for KD39 - August, 2019

Change the Weather History Date:

Sunday, August 18, 2019

  Actual Average (KGHW) Record (KGHW)
Temperature  
Mean Temperature 61 °F -  
Max Temperature 70 °F 80 °F 98 °F (2003)
Min Temperature 52 °F 56 °F 37 °F (2003)
Degree Days  
Heating Degree Days 4    
Growing Degree Days 11 (Base 50)    
Moisture  
Dew Point 53 °F    
Average Humidity 74    
Maximum Humidity 99    
Minimum Humidity 44    
Precipitation  
Precipitation 0.09 in - - ()
Sea Level Pressure  
Sea Level Pressure 29.83 in    
Wind  
Wind Speed 7 mph (WNW)    
Max Wind Speed 16 mph    
Max Gust Speed 22 mph    
Visibility 10 miles    
Events Rain    
Averages and records for this station are not official NWS values.
T = Trace of Precipitation, MM = Missing Value Source: NWS Daily Summary

Daily Weather History Graph

Daily Weather History Graph

Search for Another Location

Airport or City:

Astronomy

Aug. 18, 2019 Rise Set
Actual Time 6:23 AM CDT 8:22 PM CDT
Civil Twilight 5:51 AM CDT 8:54 PM CDT
Nautical Twilight 5:11 AM CDT 9:34 PM CDT
Astronomical Twilight 4:28 AM CDT 10:17 PM CDT
Moon 10:09 PM CDT (8/18) 9:15 AM CDT (8/18)
Length of Visible Light 15h 03m
Length of Day
13h 59m
Waning Gibbous, 91% of the Moon is Illuminated
Aug 18
Waning Gibbous
Aug 23
Last Quarter
Aug 30
New
Sep 5
First Quarter
Sep 13
Full

Hourly Weather History & Observations

Time (CDT) Temp. Dew Point Humidity Pressure Visibility Wind Dir Wind Speed Gust Speed Precip Events Conditions
12:15 AM 62.6 °F 61.7 °F 97% 29.72 in 10.0 mi Calm Calm - N/A   Mostly Cloudy
12:16 AM 62.6 °F 61.7 °F 97% 29.73 in 10.0 mi Calm Calm - N/A   Mostly Cloudy
12:35 AM 62.1 °F 61.2 °F 97% 29.74 in 10.0 mi Calm Calm - N/A   Light Drizzle
12:36 AM 61.9 °F 61.2 °F 97% 29.74 in 10.0 mi Calm Calm - N/A   Light Drizzle
12:58 AM 61.9 °F 61.3 °F 98% 29.74 in 10.0 mi West 3.5 mph - N/A Rain Light Rain
1:16 AM 62.1 °F 61.5 °F 98% 29.72 in 10.0 mi West 3.5 mph - 0.01 in Rain Rain
1:35 AM 62.1 °F 61.7 °F 99% 29.71 in 10.0 mi WNW 3.5 mph - 0.03 in Rain Rain
1:55 AM 62.1 °F 61.7 °F 99% 29.71 in 7.0 mi Calm Calm - 0.05 in Rain Rain
1:56 AM 62.1 °F 61.7 °F 99% 29.71 in 7.0 mi Calm Calm - 0.05 in Rain Rain
2:15 AM 61.9 °F 61.5 °F 99% 29.67 in 10.0 mi East 4.6 mph - 0.01 in Rain Light Rain
2:38 AM 61.9 °F 61.3 °F 98% 29.66 in 10.0 mi ESE 10.4 mph - 0.03 in Rain Light Rain
2:58 AM 61.7 °F 61.2 °F 98% 29.67 in 10.0 mi East 3.5 mph - 0.04 in   Light Drizzle
3:15 AM 61.7 °F 61.0 °F 97% 29.69 in 10.0 mi Calm Calm - N/A   Overcast
3:36 AM 61.9 °F 61.3 °F 98% 29.71 in 10.0 mi West 6.9 mph - N/A   Overcast
3:55 AM 62.1 °F 61.7 °F 99% 29.71 in 10.0 mi WNW 8.1 mph - N/A   Overcast
4:15 AM 62.1 °F 61.7 °F 99% 29.71 in 10.0 mi WNW 5.8 mph - N/A   Overcast
4:16 AM 62.1 °F 61.7 °F 99% 29.71 in 10.0 mi WNW 5.8 mph - N/A   Overcast
4:39 AM 61.7 °F 61.2 °F 98% 29.71 in 10.0 mi WNW 3.5 mph - N/A   Mostly Cloudy
4:56 AM 61.9 °F 61.3 °F 98% 29.72 in 7.0 mi West 5.8 mph - N/A   Overcast
5:15 AM 61.0 °F 60.4 °F 98% 29.72 in 4.0 mi NW 16.1 mph 21.9 mph N/A Rain Light Rain
5:35 AM 58.8 °F 57.9 °F 97% 29.71 in 10.0 mi NW 13.8 mph 19.6 mph N/A   Overcast
5:36 AM 58.6 °F 57.7 °F 97% 29.71 in 10.0 mi NW 13.8 mph 19.6 mph N/A   Overcast
5:55 AM 58.1 °F 57.2 °F 97% 29.71 in 10.0 mi NW 15.0 mph - N/A   Overcast
5:56 AM 58.1 °F 57.2 °F 97% 29.71 in 10.0 mi NW 13.8 mph - N/A   Overcast
6:15 AM 58.1 °F 56.7 °F 95% 29.71 in 10.0 mi NW 11.5 mph 17.3 mph N/A   Mostly Cloudy
6:16 AM 58.1 °F 56.7 °F 95% 29.71 in 10.0 mi NW 10.4 mph 17.3 mph N/A   Mostly Cloudy
6:37 AM 58.1 °F 56.3 °F 94% 29.73 in 10.0 mi NW 11.5 mph 19.6 mph N/A   Overcast
6:56 AM 57.7 °F 55.4 °F 92% 29.74 in 10.0 mi NW 11.5 mph - N/A   Overcast
7:15 AM 58.1 °F 55.2 °F 90% 29.75 in 10.0 mi NW 8.1 mph - N/A   Overcast
7:16 AM 58.1 °F 55.2 °F 90% 29.75 in 10.0 mi NW 6.9 mph - N/A   Overcast
7:35 AM 58.3 °F 54.7 °F 88% 29.76 in 10.0 mi NW 10.4 mph - N/A   Overcast
7:36 AM 58.3 °F 54.7 °F 88% 29.76 in 10.0 mi NW 11.5 mph - N/A   Overcast
7:55 AM 58.6 °F 54.7 °F 87% 29.77 in 10.0 mi NW 9.2 mph 16.1 mph N/A   Scattered Clouds
8:00 AM 59.0 °F 55.4 °F 88% 29.78 in 10.0 mi NW 8.1 mph - N/A   Scattered Clouds
8:18 AM 59.9 °F 55.0 °F 84% 29.80 in 10.0 mi WNW 12.7 mph - N/A   Clear
8:38 AM 60.6 °F 53.4 °F 77% 29.81 in 10.0 mi NW 15.0 mph 20.7 mph N/A   Clear
8:57 AM 61.2 °F 52.9 °F 74% 29.82 in 10.0 mi NW 10.4 mph 16.1 mph N/A   Clear
9:17 AM 62.6 °F 52.5 °F 70% 29.84 in 10.0 mi NW 11.5 mph - N/A   Clear
9:35 AM 63.0 °F 51.4 °F 66% 29.83 in 10.0 mi NW 11.5 mph - N/A   Clear
9:36 AM 62.8 °F 51.4 °F 66% 29.83 in 10.0 mi NNW 10.4 mph - N/A   Clear
9:55 AM 62.6 °F 51.3 °F 66% 29.84 in 10.0 mi NW 9.2 mph - N/A   Clear
10:15 AM 62.8 °F 52.5 °F 69% 29.85 in 10.0 mi WNW 8.1 mph - N/A   Clear
10:19 AM 62.8 °F 52.2 °F 68% 29.85 in 10.0 mi WNW 8.1 mph - N/A   Clear
10:39 AM 63.9 °F 52.3 °F 66% 29.86 in 10.0 mi WNW 8.1 mph - N/A   Clear
10:57 AM 64.6 °F 52.5 °F 65% 29.86 in 10.0 mi West 9.2 mph - N/A   Scattered Clouds
11:16 AM 64.4 °F 52.9 °F 66% 29.86 in 10.0 mi West 11.5 mph - N/A   Scattered Clouds
11:35 AM 65.7 °F 52.7 °F 63% 29.86 in 10.0 mi WNW 12.7 mph 18.4 mph N/A   Clear
11:36 AM 65.8 °F 52.9 °F 63% 29.86 in 10.0 mi West 12.7 mph 18.4 mph N/A   Clear
11:55 AM 65.3 °F 52.0 °F 62% 29.86 in 10.0 mi WNW 13.8 mph - N/A   Clear
11:56 AM 65.5 °F 51.6 °F 61% 29.86 in 10.0 mi WNW 13.8 mph - N/A   Clear
12:19 PM 66.4 °F 50.9 °F 57% 29.87 in 10.0 mi West 13.8 mph 19.6 mph N/A   Clear
12:36 PM 66.4 °F 50.2 °F 56% 29.87 in 10.0 mi West 12.7 mph - N/A   Clear
12:55 PM 67.5 °F 50.0 °F 53% 29.87 in 10.0 mi West 12.7 mph 18.4 mph N/A   Clear
1:15 PM 67.6 °F 50.0 °F 53% 29.88 in 10.0 mi WNW 11.5 mph 18.4 mph N/A   Clear
1:16 PM 67.6 °F 50.2 °F 54% 29.88 in 10.0 mi WNW 10.4 mph 18.4 mph N/A   Clear
1:35 PM 68.0 °F 50.0 °F 52% 29.88 in 10.0 mi NW 12.7 mph 20.7 mph N/A   Clear
1:40 PM 68.2 °F 50.0 °F 52% 29.88 in 10.0 mi West 13.8 mph 20.7 mph N/A   Clear
1:57 PM 68.5 °F 48.9 °F 49% 29.89 in 10.0 mi West 12.7 mph - N/A   Clear
2:15 PM 69.3 °F 48.4 °F 47% 29.88 in 10.0 mi NW 13.8 mph 18.4 mph N/A   Clear
2:35 PM 69.1 °F 49.3 °F 49% 29.89 in 10.0 mi WNW 12.7 mph 20.7 mph N/A   Clear
2:36 PM 69.1 °F 48.9 °F 49% 29.89 in 10.0 mi West 11.5 mph 20.7 mph N/A   Clear
2:55 PM 69.1 °F 47.1 °F 45% 29.89 in 10.0 mi West 11.5 mph 18.4 mph N/A   Clear
2:56 PM 69.1 °F 47.5 °F 46% 29.89 in 10.0 mi West 12.7 mph 18.4 mph N/A   Clear
3:15 PM 69.4 °F 46.8 °F 44% 29.89 in 10.0 mi West 11.5 mph 20.7 mph N/A   Clear
3:16 PM 69.4 °F 46.4 °F 44% 29.89 in 10.0 mi West 13.8 mph 20.7 mph N/A   Clear
3:35 PM 69.8 °F 46.8 °F 44% 29.89 in 10.0 mi WNW 13.8 mph 21.9 mph N/A   Clear
3:57 PM 69.4 °F 47.7 °F 46% 29.89 in 10.0 mi WNW 16.1 mph 20.7 mph N/A   Clear
4:15 PM 69.3 °F 47.3 °F 45% 29.89 in 10.0 mi WNW 11.5 mph 18.4 mph N/A   Clear
4:35 PM 69.3 °F 48.2 °F 47% 29.88 in 10.0 mi NW 15.0 mph 19.6 mph N/A   Clear
4:36 PM 69.4 °F 48.0 °F 46% 29.88 in 10.0 mi NW 16.1 mph - N/A   Clear
4:55 PM 69.6 °F 48.4 °F 47% 29.88 in 10.0 mi WNW 13.8 mph 19.6 mph N/A   Clear
4:56 PM 69.6 °F 48.0 °F 46% 29.88 in 10.0 mi WNW 16.1 mph 19.6 mph N/A   Clear
5:18 PM 69.8 °F 49.3 °F 48% 29.88 in 10.0 mi WNW 11.5 mph - N/A   Clear
5:37 PM 69.8 °F 48.4 °F 46% 29.88 in 10.0 mi WNW 11.5 mph 17.3 mph N/A   Clear
5:56 PM 69.1 °F 47.8 °F 47% 29.89 in 10.0 mi NW 13.8 mph 18.4 mph N/A   Clear
6:15 PM 69.3 °F 48.0 °F 47% 29.88 in 10.0 mi WNW 12.7 mph 17.3 mph N/A   Clear
6:35 PM 68.9 °F 47.7 °F 47% 29.88 in 10.0 mi WNW 6.9 mph - N/A   Clear
6:39 PM 68.9 °F 48.4 °F 48% 29.88 in 10.0 mi WNW 6.9 mph - N/A   Clear
6:57 PM 68.5 °F 47.7 °F 47% 29.88 in 10.0 mi WNW 6.9 mph - N/A   Clear
7:16 PM 67.5 °F 48.9 °F 51% 29.89 in 10.0 mi West 4.6 mph - N/A   Clear
7:35 PM 66.4 °F 49.8 °F 55% 29.89 in 10.0 mi West 3.5 mph - N/A   Clear
7:36 PM 66.2 °F 49.6 °F 55% 29.89 in 10.0 mi West 4.6 mph - N/A   Clear
7:55 PM 64.9 °F 49.8 °F 58% 29.89 in 10.0 mi WSW 3.5 mph - N/A   Clear
7:56 PM 64.9 °F 50.2 °F 59% 29.89 in 10.0 mi WSW 3.5 mph - N/A   Clear
8:18 PM 62.8 °F 51.3 °F 66% 29.90 in 10.0 mi WSW 3.5 mph - N/A   Clear
8:37 PM 59.9 °F 52.3 °F 76% 29.91 in 10.0 mi Calm Calm - N/A   Clear
8:55 PM 58.5 °F 52.7 °F 81% 29.91 in 10.0 mi Calm Calm - N/A   Clear
9:16 PM 57.2 °F 53.1 °F 86% 29.92 in 10.0 mi Calm Calm - N/A   Clear
9:35 PM 55.6 °F 52.7 °F 90% 29.92 in 10.0 mi Calm Calm - N/A   Clear
9:55 PM 55.9 °F 52.0 °F 87% 29.93 in 10.0 mi Calm Calm - N/A   Clear
9:56 PM 55.9 °F 52.0 °F 87% 29.93 in 10.0 mi Calm Calm - N/A   Clear
10:19 PM 54.9 °F 51.8 °F 89% 29.93 in 10.0 mi Calm Calm - N/A   Clear
10:38 PM 55.4 °F 51.1 °F 85% 29.94 in 10.0 mi Calm Calm - N/A   Clear
10:56 PM 53.8 °F 50.9 °F 90% 29.94 in 10.0 mi Calm Calm - N/A   Clear
11:15 PM 53.1 °F 50.7 °F 92% 29.94 in 10.0 mi Calm Calm - N/A   Clear
11:16 PM 53.1 °F 50.7 °F 92% 29.94 in 10.0 mi Calm Calm - N/A   Clear
11:35 PM 53.2 °F 50.9 °F 92% 29.95 in 10.0 mi Calm Calm - N/A   Clear
11:36 PM 53.2 °F 50.7 °F 91% 29.95 in 10.0 mi Calm Calm - N/A   Clear
11:55 PM 52.7 °F 50.0 °F 91% 29.95 in 10.0 mi Calm Calm - N/A   Clear